Starlink 1923

decayed
NORAD ID: 46754 Int'l Des: 2020-074 Owner: SPXS Country: US Constellation: starlink
LEOCIRCULAR
グループ

Starlink 1923について

説明を読み込み中...

高度履歴

Altitude vs Time

uPlot chart will show altitude changes over time

軌道要素

1 46754U 20074R 24336.92810682 .12800429 12208-4 11940-2 0 9993
2 46754 53.0296 206.0431 0007043 216.4365 245.0377 16.37847989227393
Epoch: Dec 1, 2024 • Age: 8070 hours

現在のステータス

Position data unavailable
打ち上げ日 Oct 24, 2020
運用期間 5 years
落下予定日 Dec 2, 2024
タイプ internet

技術仕様

分類 Payload
質量 260.00 kg
乾燥質量 248.00 kg
総質量 260.00 kg
長さ 0.20 m
直径 2.80 m
スパン 9.00 m
形状 Box + pan
製造者 SPXS
バスタイプ Starlink
フェーズステータス Unknown Transfer Status
所有者/国 SPXS/US

大規模コンステレーション

Loading constellations...